Home > Time Zones > World Clock > Weather > U.S.A. > Bend > Past weeks

Flag for U.S.A. Weather past 2 weeks in Bend, Oregon, U.S.A.

Now
59 °F

Passing clouds.


Feels Like: 59 °F
Forecast: 56 / 78 °F
Wind: No wind

Location: Roberts Field Airport

Current Time: May 30, 2015 at 7:55:48 AM

Latest Report: May 30, 2015 at 6:56 AM


Visibility: 10 mi

Pressure: 29.88 "Hg

Humidity: 81%

Dew point: 53 °F

Location of BendLocation

Historic Weather in Bend — Graph

°F

Bend temperature yesterday

Maximum temperature yesterday: 83 °F (at 1:56 PM)
Minimum temperature yesterday: 48 °F (at 4:56 AM)
Average temperature yesterday: 66 °F

Past Weeks' High & Low Weather Summary

 TemperatureHumidityPressure
High83 °F (May 29, 1:56 PM)100% (May 17, 11:56 PM)30.08 "Hg (May 17, 11:56 PM)
Low33 °F (May 17, 5:56 AM)20% (May 28, 3:56 PM)29.76 "Hg (May 15, 5:56 AM)
Average56 °F68%29.95 "Hg
* Reported May 15 5:56 AM — May 30 5:56 AM, Bend, Weather by CustomWeather, © 2015

Note: Actual official high and low records may vary slightly from our data, if they occured in-between our weather recording intervals... More about our weather records

Advertising

Bend weather history for previous 24 hours

 ConditionsComfort  
Time TempWeatherWind HumidityBarometerVisibility
5:56 AM
Sat, May 30
57 °FClear.6 mph83%29.88 "Hg10 mi
4:56 AM58 °FPassing clouds.3 mph84%29.86 "Hg10 mi
3:56 AM59 °FPassing clouds.9 mph81%29.87 "Hg10 mi
2:56 AM58 °FPassing clouds.6 mph84%29.86 "Hg10 mi
1:56 AM57 °FClear.5 mph87%29.90 "Hg10 mi
12:56 AM58 °FClear.6 mph84%29.88 "Hg10 mi
11:56 PM
Fri, May 29
58 °FClear.No wind84%29.89 "Hg10 mi
10:56 PM58 °FClear.6 mph81%29.90 "Hg10 mi
9:56 PM60 °FClear.No wind72%29.90 "Hg10 mi
8:56 PM65 °FPassing clouds.10 mph61%29.89 "Hg10 mi
7:56 PM64 °FScattered clouds.17 mph68%29.91 "Hg10 mi
6:56 PM73 °FPassing clouds.5 mph44%29.88 "Hg10 mi
5:56 PM73 °FThundershowers. Partly sunny.No wind46%29.88 "Hg10 mi
4:56 PM76 °FScattered clouds.8 mph36%29.89 "Hg10 mi
3:56 PM79 °FPartly sunny.13 mph32%29.88 "Hg10 mi
2:56 PM83 °FThundershowers. Sunny.10 mph26%29.86 "Hg10 mi
1:56 PM83 °FPassing clouds.10 mph27%29.87 "Hg10 mi
12:56 PM82 °FSunny.10 mph29%29.89 "Hg10 mi
11:56 AM80 °FSunny.5 mph29%29.91 "Hg10 mi
10:56 AM77 °FSunny.3 mph32%29.92 "Hg10 mi
9:56 AM73 °FSunny.5 mph38%29.94 "Hg10 mi
8:56 AM67 °FSunny.3 mph49%29.96 "Hg10 mi
7:56 AM63 °FSunny.6 mph54%29.96 "Hg10 mi
Weather by CustomWeather, © 2015

See weather overviewHow to use our weather pages